Regional Weather Roundup
Issued by NWS

Home | Current Version | Previous Version | Graphics & Text | Print | Product List | Glossary On
Versions: 1 2 3 4 5 6 7 8 9 10 11 12 13 14 15 16 17 18 19 20 21 22 23 24 25 26 27 28 29 30 31 32 33 34 35 36 37 38 39 40 41 42 43 44 45 46 47 48 49 50
000
ASUS45 KPSR 230900
RWRAZ

PRELIMINARY ARIZONA REGIONAL HOURLY WEATHER ROUNDUP
NATIONAL WEATHER SERVICE PHOENIX AZ
200 AM MST THU OCT 23 2014

NOTE: FAIR INDICATES FEW OR NO CLOUDS BELOW 12,000 FEET WITH NO
SIGNIFICANT WEATHER AND/OR OBSTRUCTIONS TO VISIBILITY.

AZZ001>003-036-231000-
NORTHWEST ARIZONA

CITY           SKY/WX    TMP DP  RH WIND       PRES   REMARKS
KINGMAN        CLEAR     50  39  66 E3        30.12R
$$

AZZ004>008-015-016-018-231000-
NORTH CENTRAL ARIZONA

CITY           SKY/WX    TMP DP  RH WIND       PRES   REMARKS
GRAND CANYON   PTCLDY    31  24  75 CALM      30.29S HAZE
PRESCOTT       CLEAR     50  37  61 SW6       30.21R
FLAGSTAFF      PTCLDY    35  29  78 CALM      30.32R
PAYSON         CLEAR     52  41  66 CALM      30.22S
PAGE           CLEAR     56  32  40 CALM      30.16R
$$

AZZ009>014-017-231000-
NORTHEAST ARIZONA

CITY           SKY/WX    TMP DP  RH WIND       PRES   REMARKS
WINSLOW        NOT AVBL
SAINT JOHNS    CLEAR     51  42  71 S3        30.24R
WINDOW ROCK    CLEAR     37  30  75 CALM      30.30S
$$

AZZ023-231000-
GREATER PHOENIX AREA

CITY           SKY/WX    TMP DP  RH WIND       PRES   REMARKS
PHOENIX        CLEAR     73  52  47 E6        29.95S
LUKE AFB       CLEAR     67  48  50 N6        29.96R
DEER VALLEY    CLEAR     72  47  40 NE6       29.98R
SCOTTSDALE     CLEAR     68  51  54 CALM      29.99R
$$

AZZ027-028-231000-
SOUTHWEST MARICOPA COUNTY AND PINAL COUNTY

CITY           SKY/WX    TMP DP  RH WIND       PRES   REMARKS
CASA GRANDE    CLEAR     64  46  52 CALM      29.99R
GILA BEND      FAIR      67  47  49 NE1       29.97R
$$

AZZ503-504-507>509-231000-
SOUTHEAST ARIZONA

CITY           SKY/WX    TMP DP  RH WIND       PRES   REMARKS
TUCSON         CLEAR     64  49  57 SE8       30.07S
DAVIS-MONTHAN  CLEAR     63  47  57 SE8       30.05S
NOGALES        CLEAR     53  44  71 E5        30.12S
SIERRA VISTA   CLEAR     59  43  55 W3        30.17S
SAFFORD        CLEAR     57  52  83 CALM      30.09R
$$

AZZ020-021-025-026-031-231000-
SOUTHWEST ARIZONA

CITY           SKY/WX    TMP DP  RH WIND       PRES   REMARKS
YUMA           NOT AVBL
$$

CAZ031-033-041-043-047-048-061-231000-
SOUTHERN CALIFORNIA

CITY           SKY/WX    TMP DP  RH WIND       PRES   REMARKS
DOWNTOWN L.A.  CLEAR     64  59  83 CALM      29.95S
L.A. AIRPORT   PTCLDY    64  63  96 CALM      29.96S
SAN DIEGO      CLEAR     65  60  84 CALM      29.96F FOG
BURBANK        CLEAR     63  47  55 CALM      29.97S
ONTARIO        PTCLDY    64  56  75 CALM      29.98S
RIVERSIDE      CLEAR     62  53  72 E3        29.98F
PALM SPRINGS   CLEAR     75  28  17 NW10      29.96S
EL CENTRO NAS  CLEAR     70  44  39 SW3       29.90S
IMPERIAL       CLEAR     69  48  47 W6        29.90S
BLYTHE         CLEAR     70  41  34 NW3       29.93S
$$

NVZ020-UTZ003-231000-
SOUTHERN NEVADA-UTAH

CITY           SKY/WX    TMP DP  RH WIND       PRES   REMARKS
LAS VEGAS      NOT AVBL
SALT LAKE CITY PTCLDY    45  34  65 E6        30.16R
$$

NMZ009-TXZ055-231000-
NEW MEXICO-WEST TEXAS

CITY           SKY/WX    TMP DP  RH WIND       PRES   REMARKS
ALBUQUERQUE    CLEAR     55  44  66 SE3       30.21S
EL PASO        PTCLDY    60  53  77 CALM      30.14S
$$


........................KEY........................
SKY/WX - SKY CONDITION/WEATHER
TMP    - TEMPERATURE IN FAHRENHEIT
DP     - DEW POINT IN FAHRENHEIT
RH     - RELATIVE HUMIDITY IN PERCENT
WIND   - DIRECTION AND SPEED IN MILES PER HOUR (MPH)
VRB    - VARIABLE WIND DIRECTION
PRES   - MEAN SEA LEVEL PRESSURE IN INCHES OF MERCURY
         F - FALLING PRESSURE   R - RISING PRESSURE
         S - STEADY PRESSURE
VSB    - VISIBILITY IN MILES
HX     - HEAT INDEX IN FAHRENHEIT
WCI    - WIND CHILL INDEX IN FAHRENHEIT
TC     - TEMPERATURE IN CELSIUS WHICH IS ALSO KNOWN AS
         TEMPERATURE IN CENTIGRADE
AFB    - AIR FORCE BASE
         LUKE AFB IS LUKE AIR FORCE BASE
         DAVIS-MONTHAN IS DAVIS-MONTHAN AIR FORCE BASE
NAS    - NAVAL AIR STATION
         EL CENTRO NAS IS EL CENTRO NAVAL AIR STATION
N/A    - NOT AVAILABLE



USA.gov is the U.S. government's official web portal to all federal, state and local government web resources and services.